TimeEEST,TemperatureF,Dew PointF,Humidity,Sea Level PressureIn,VisibilityMPH,Wind Direction,Wind SpeedMPH,Gust SpeedMPH,PrecipitationIn,Events,Conditions,WindDirDegrees,DateUTC
12:50 AM,66.2,62.6,88,30.01,6.2,Calm,Calm,-,N/A,,Partly Cloudy,0,2012-10-05 21:50:00
1:50 AM,66.2,62.6,88,30.01,6.2,Calm,Calm,-,N/A,,Partly Cloudy,0,2012-10-05 22:50:00
2:50 AM,66.2,62.6,88,30.01,6.2,Calm,Calm,-,N/A,,Partly Cloudy,0,2012-10-05 23:50:00
3:50 AM,66.2,62.6,88,30.01,6.2,Calm,Calm,-,N/A,,Partly Cloudy,0,2012-10-06 00:50:00
4:50 AM,64.4,60.8,88,30.01,6.2,Calm,Calm,-,N/A,,Partly Cloudy,0,2012-10-06 01:50:00
5:50 AM,64.4,60.8,88,30.01,6.2,Calm,Calm,-,N/A,,Partly Cloudy,0,2012-10-06 02:50:00
6:20 AM,64.4,60.8,88,30.01,6.2,Calm,Calm,-,N/A,,Partly Cloudy,0,2012-10-06 03:20:00
6:50 AM,64.4,60.8,88,30.01,6.2,Calm,Calm,-,N/A,,Partly Cloudy,0,2012-10-06 03:50:00
7:20 AM,64.4,60.8,88,30.01,6.2,Calm,Calm,-,N/A,,Partly Cloudy,0,2012-10-06 04:20:00
7:50 AM,64.4,60.8,88,30.04,-9999.0,Calm,Calm,-,N/A,,Clear,0,2012-10-06 04:50:00
8:20 AM,64.4,60.8,88,30.04,-9999.0,Calm,Calm,-,N/A,,Clear,0,2012-10-06 05:20:00
8:50 AM,64.4,60.8,88,30.04,-9999.0,Calm,Calm,-,N/A,,Clear,0,2012-10-06 05:50:00
9:20 AM,73.4,64.4,73,30.06,-9999.0,NE,5.8,-,N/A,,Clear,40,2012-10-06 06:20:00
9:50 AM,77.0,62.6,61,30.06,-9999.0,NE,5.8,-,N/A,,Clear,40,2012-10-06 06:50:00
10:20 AM,77.0,59.0,54,30.06,-9999.0,NNE,6.9,-,N/A,,Clear,30,2012-10-06 07:20:00
10:50 AM,78.8,59.0,51,30.06,-9999.0,NE,6.9,-,N/A,,Clear,40,2012-10-06 07:50:00
11:20 AM,80.6,59.0,48,30.06,-9999.0,NE,6.9,-,N/A,,Clear,40,2012-10-06 08:20:00
11:50 AM,82.4,57.2,42,30.06,-9999.0,NE,5.8,-,N/A,,Clear,40,2012-10-06 08:50:00
12:20 PM,82.4,59.0,45,30.06,6.2,NE,6.9,-,N/A,,Partly Cloudy,40,2012-10-06 09:20:00
12:50 PM,80.6,57.2,45,30.06,6.2,NNE,5.8,-,N/A,,Partly Cloudy,20,2012-10-06 09:50:00
1:20 PM,82.4,59.0,45,30.06,6.2,NNE,4.6,-,N/A,,Partly Cloudy,30,2012-10-06 10:20:00
1:50 PM,80.6,60.8,51,30.06,6.2,NNE,5.8,-,N/A,,Partly Cloudy,20,2012-10-06 10:50:00
2:20 PM,82.4,59.0,45,30.06,6.2,NE,6.9,-,N/A,,Partly Cloudy,40,2012-10-06 11:20:00
2:50 PM,84.2,57.2,40,30.06,6.2,NE,6.9,-,N/A,,Partly Cloudy,40,2012-10-06 11:50:00
3:20 PM,84.2,57.2,40,30.04,6.2,NE,6.9,-,N/A,,Partly Cloudy,40,2012-10-06 12:20:00
3:50 PM,84.2,59.0,42,30.04,6.2,NNE,5.8,-,N/A,,Partly Cloudy,30,2012-10-06 12:50:00
4:20 PM,82.4,59.0,45,30.04,6.2,NNE,9.2,-,N/A,,Partly Cloudy,30,2012-10-06 13:20:00
4:50 PM,82.4,59.0,45,30.04,6.2,WNW,6.9,-,N/A,,Partly Cloudy,300,2012-10-06 13:50:00
5:20 PM,80.6,60.8,51,30.04,6.2,WNW,6.9,-,N/A,,Partly Cloudy,300,2012-10-06 14:20:00
5:50 PM,80.6,60.8,51,30.04,-9999.0,West,4.6,-,N/A,,Clear,280,2012-10-06 14:50:00
6:20 PM,80.6,64.4,58,30.04,-9999.0,West,4.6,-,N/A,,Clear,280,2012-10-06 15:20:00
6:50 PM,77.0,64.4,65,30.04,-9999.0,Calm,Calm,-,N/A,,Clear,0,2012-10-06 15:50:00
7:20 PM,75.2,66.2,73,30.04,-9999.0,Calm,Calm,-,N/A,,Clear,0,2012-10-06 16:20:00
7:50 PM,71.6,64.4,78,30.04,-9999.0,Calm,Calm,-,N/A,,Clear,0,2012-10-06 16:50:00
8:20 PM,71.6,62.6,73,30.04,-9999.0,Calm,Calm,-,N/A,,Clear,0,2012-10-06 17:20:00
8:50 PM,69.8,62.6,78,30.04,-9999.0,Calm,Calm,-,N/A,,Clear,0,2012-10-06 17:50:00
9:50 PM,69.8,62.6,78,30.04,-9999.0,Calm,Calm,-,N/A,,Clear,0,2012-10-06 18:50:00
10:50 PM,66.2,64.4,94,30.04,-9999.0,Calm,Calm,-,N/A,,Clear,0,2012-10-06 19:50:00
11:50 PM,62.6,59.0,88,30.04,-9999.0,Calm,Calm,-,N/A,,Clear,0,2012-10-06 20:50:00